Radiation Dose at Monitoring Post of Fukushima Daini Nuclear Power Station
Date,Time,MP-1(microSv/h),MP-2(microSv/h),MP-3(microSv/h),MP-4(microSv/h),MP-5(microSv/h),MP-6(microSv/h),MP-7(microSv/h),Wind Direction,Wind Velocity(m/s),Rain
2016/08/27,00:00,0.399,0.240,0.417,0.385,0.365,0.196,0.167,north,7.3,Yes
2016/08/27,00:10,0.400,0.241,0.416,0.383,0.368,0.197,0.166,north,6.1,Yes
2016/08/27,00:20,0.402,0.241,0.418,0.384,0.365,0.197,0.168,north,6.7,Yes
2016/08/27,00:30,0.399,0.240,0.417,0.385,0.366,0.198,0.168,north,9.2,Yes
2016/08/27,00:40,0.398,0.241,0.414,0.381,0.370,0.196,0.167,north,7.8,Yes
2016/08/27,00:50,0.402,0.239,0.419,0.382,0.365,0.197,0.168,north,6.3,Yes
2016/08/27,01:00,0.398,0.239,0.415,0.382,0.364,0.197,0.168,north-northwest,6.1,Yes
2016/08/27,01:10,0.399,0.241,0.412,0.382,0.368,0.198,0.168,north-northwest,7.0,Yes
2016/08/27,01:20,0.401,0.239,0.416,0.379,0.365,0.199,0.170,north-northwest,6.9,Yes
2016/08/27,01:30,0.398,0.240,0.414,0.381,0.364,0.199,0.170,north-northwest,6.6,Yes
2016/08/27,01:40,0.396,0.241,0.409,0.378,0.366,0.198,0.169,north-northwest,6.4,Yes
2016/08/27,01:50,0.397,0.240,0.414,0.377,0.365,0.202,0.173,north-northeast,7.8,Yes
2016/08/27,02:00,0.395,0.245,0.410,0.381,0.368,0.201,0.173,north,6.6,Yes
2016/08/27,02:10,0.396,0.245,0.412,0.377,0.368,0.201,0.174,north,8.2,Yes
2016/08/27,02:20,0.397,0.244,0.413,0.378,0.367,0.203,0.175,north,8.5,Yes
2016/08/27,02:30,0.395,0.242,0.408,0.379,0.371,0.202,0.173,north,9.8,Yes
2016/08/27,02:40,0.394,0.240,0.405,0.371,0.365,0.200,0.174,north,10.3,Yes
2016/08/27,02:50,0.390,0.240,0.406,0.375,0.367,0.201,0.173,north,9.1,Yes
2016/08/27,03:00,0.390,0.242,0.404,0.374,0.370,0.199,0.172,north,7.7,Yes
2016/08/27,03:10,0.392,0.241,0.410,0.371,0.366,0.200,0.173,north,7.0,Yes
2016/08/27,03:20,0.389,0.240,0.408,0.374,0.368,0.199,0.171,north,7.5,Yes
2016/08/27,03:30,0.392,0.242,0.406,0.373,0.368,0.200,0.172,north,6.6,Yes
2016/08/27,03:40,0.392,0.240,0.411,0.372,0.366,0.199,0.171,north,6.5,Yes
2016/08/27,03:50,0.389,0.242,0.407,0.376,0.369,0.196,0.168,north,7.8,Yes
2016/08/27,04:00,0.394,0.240,0.408,0.373,0.366,0.198,0.169,north,7.1,Yes
2016/08/27,04:10,0.392,0.240,0.409,0.374,0.366,0.197,0.168,north,6.4,Yes
2016/08/27,04:20,0.392,0.242,0.405,0.375,0.367,0.196,0.167,north,6.9,Yes
2016/08/27,04:30,0.395,0.240,0.410,0.373,0.365,0.199,0.169,north,7.4,Yes
2016/08/27,04:40,0.392,0.243,0.410,0.379,0.370,0.202,0.169,north,7.1,Yes
2016/08/27,04:50,0.395,0.243,0.407,0.376,0.371,0.202,0.173,north,9.4,Yes
2016/08/27,05:00,0.395,0.244,0.412,0.375,0.368,0.203,0.173,north,8.4,Yes
2016/08/27,05:10,0.390,0.243,0.409,0.379,0.371,0.200,0.171,north-northeast,10.1,Yes
2016/08/27,05:20,0.395,0.240,0.409,0.374,0.368,0.200,0.171,north-northeast,10.3,Yes
2016/08/27,05:30,0.392,0.241,0.409,0.375,0.368,0.198,0.168,north,9.7,No
2016/08/27,05:40,0.391,0.239,0.406,0.374,0.367,0.195,0.168,north-northeast,9.8,No
2016/08/27,05:50,0.392,0.237,0.407,0.371,0.363,0.196,0.166,north-northeast,11.0,Yes
2016/08/27,06:00,0.389,0.238,0.406,0.374,0.366,0.194,0.164,north,9.6,Yes
2016/08/27,06:10,0.391,0.236,0.405,0.372,0.361,0.193,0.165,north-northeast,10.0,Yes
2016/08/27,06:20,0.391,0.235,0.408,0.370,0.363,0.193,0.163,north,8.6,No
2016/08/27,06:30,0.388,0.237,0.403,0.374,0.361,0.191,0.163,north,8.0,No
2016/08/27,06:40,0.390,0.234,0.404,0.370,0.361,0.191,0.162,north,9.1,No
2016/08/27,06:50,0.389,0.236,0.407,0.369,0.363,0.191,0.161,north-northeast,10.6,No
2016/08/27,07:00,0.389,0.234,0.402,0.371,0.359,0.190,0.162,north,9.2,Yes
2016/08/27,07:10,0.390,0.234,0.406,0.369,0.361,0.191,0.160,north,10.1,Yes
2016/08/27,07:20,0.388,0.235,0.406,0.374,0.361,0.190,0.162,north-northeast,10.4,Yes
2016/08/27,07:30,0.391,0.234,0.405,0.371,0.360,0.192,0.162,north-northeast,12.1,Yes
2016/08/27,07:40,0.392,0.237,0.408,0.371,0.364,0.195,0.163,north-northeast,11.0,Yes
2016/08/27,07:50,0.390,0.239,0.405,0.374,0.362,0.195,0.166,north-northeast,10.0,Yes
2016/08/27,08:00,0.393,0.237,0.407,0.371,0.365,0.195,0.165,north-northeast,10.9,Yes
2016/08/27,08:10,0.392,0.238,0.407,0.373,0.363,0.194,0.165,north-northeast,9.8,Yes
2016/08/27,08:20,0.392,0.235,0.406,0.371,0.362,0.193,0.164,north,8.1,No
2016/08/27,08:30,0.393,0.236,0.406,0.371,0.365,0.195,0.163,north,8.5,Yes
2016/08/27,08:40,0.392,0.237,0.404,0.375,0.360,0.193,0.165,north,8.1,Yes
2016/08/27,08:50,0.393,0.237,0.409,0.372,0.364,0.196,0.164,north,7.2,Yes
2016/08/27,09:00,0.391,0.239,0.407,0.374,0.361,0.194,0.165,north,6.9,Yes
2016/08/27,09:10,0.394,0.237,0.406,0.372,0.364,0.195,0.164,north,6.5,Yes
2016/08/27,09:20,0.392,0.240,0.408,0.371,0.363,0.194,0.164,north,7.0,Yes
2016/08/27,09:30,0.392,0.237,0.404,0.373,0.362,0.193,0.164,north,7.4,Yes
2016/08/27,09:40,0.394,0.237,0.406,0.370,0.362,0.194,0.163,north,6.9,Yes
2016/08/27,09:50,0.390,0.238,0.407,0.373,0.360,0.193,0.164,north,6.7,Yes
2016/08/27,10:00,0.393,0.237,0.405,0.374,0.364,0.192,0.162,north,7.0,Yes
2016/08/27,10:10,0.392,0.241,0.410,0.373,0.363,0.196,0.165,north,7.4,Yes
2016/08/27,10:20,0.395,0.240,0.406,0.376,0.366,0.198,0.165,north,7.8,Yes
2016/08/27,10:30,0.396,0.244,0.410,0.374,0.367,0.200,0.167,north,8.1,Yes
2016/08/27,10:40,0.395,0.247,0.410,0.379,0.369,0.206,0.171,north,8.0,Yes
2016/08/27,10:50,0.398,0.244,0.410,0.380,0.373,0.205,0.169,north,7.4,Yes
2016/08/27,11:00,0.395,0.246,0.412,0.378,0.369,0.205,0.170,north,6.9,Yes
2016/08/27,11:10,0.397,0.242,0.407,0.379,0.370,0.202,0.167,north,6.5,Yes
2016/08/27,11:20,0.395,0.243,0.413,0.376,0.371,0.203,0.166,north,6.4,Yes
2016/08/27,11:30,0.392,0.242,0.411,0.378,0.369,0.203,0.166,north,6.3,Yes
2016/08/27,11:40,0.395,0.243,0.411,0.377,0.372,0.202,0.167,north,8.3,Yes
2016/08/27,11:50,0.392,0.242,0.411,0.375,0.367,0.201,0.167,north-northeast,7.4,Yes
2016/08/27,12:00,0.394,0.242,0.407,0.376,0.371,0.200,0.165,north,8.3,Yes
2016/08/27,12:10,0.393,0.241,0.411,0.373,0.366,0.200,0.165,north-northeast,8.4,Yes
2016/08/27,12:20,0.391,0.240,0.407,0.376,0.369,0.197,0.166,north-northeast,11.0,Yes
2016/08/27,12:30,0.393,0.239,0.408,0.376,0.367,0.198,0.163,north-northeast,7.8,Yes
2016/08/27,12:40,0.389,0.239,0.410,0.373,0.364,0.196,0.164,north,6.8,Yes
2016/08/27,12:50,0.393,0.237,0.405,0.376,0.365,0.194,0.161,north,6.2,Yes
2016/08/27,13:00,0.392,0.238,0.408,0.371,0.363,0.194,0.163,north-northeast,7.4,Yes
2016/08/27,13:10,0.390,0.235,0.407,0.373,0.365,0.194,0.164,north-northeast,9.2,Yes
2016/08/27,13:20,0.391,0.236,0.405,0.372,0.363,0.193,0.163,north-northeast,8.7,Yes
2016/08/27,13:30,0.388,0.237,0.406,0.370,0.362,0.193,0.162,north-northeast,8.3,Yes
2016/08/27,13:40,0.392,0.234,0.404,0.373,0.364,0.191,0.161,north-northeast,9.6,Yes
2016/08/27,13:50,0.390,0.237,0.407,0.368,0.360,0.192,0.162,north,6.2,Yes
2016/08/27,14:00,0.389,0.234,0.405,0.372,0.362,0.191,0.162,north,7.0,Yes
2016/08/27,14:10,0.392,0.236,0.405,0.370,0.359,0.191,0.160,north-northeast,6.9,Yes
2016/08/27,14:20,0.388,0.235,0.405,0.368,0.361,0.191,0.162,north,7.8,Yes
2016/08/27,14:30,0.392,0.233,0.403,0.371,0.360,0.191,0.160,north,6.7,Yes
2016/08/27,14:40,0.389,0.235,0.406,0.367,0.359,0.191,0.160,north,7.3,Yes
2016/08/27,14:50,0.389,0.233,0.402,0.371,0.361,0.189,0.161,north,6.3,Yes
2016/08/27,15:00,0.390,0.234,0.404,0.370,0.358,0.189,0.160,north,6.7,Yes
2016/08/27,15:10,0.387,0.233,0.405,0.368,0.361,0.190,0.160,north,7.5,Yes
2016/08/27,15:20,0.391,0.233,0.400,0.371,0.358,0.188,0.159,north,6.9,Yes
2016/08/27,15:30,0.391,0.234,0.405,0.368,0.359,0.191,0.160,north,6.6,Yes
2016/08/27,15:40,0.387,0.233,0.404,0.369,0.361,0.190,0.160,north,7.5,Yes
2016/08/27,15:50,0.391,0.235,0.403,0.371,0.357,0.189,0.160,north,8.7,Yes
2016/08/27,16:00,0.389,0.234,0.406,0.368,0.361,0.190,0.161,north,7.3,Yes
2016/08/27,16:10,0.389,0.232,0.403,0.371,0.358,0.189,0.160,north,6.9,Yes
2016/08/27,16:20,0.391,0.235,0.406,0.369,0.358,0.189,0.158,north,7.1,Yes
2016/08/27,16:30,0.388,0.233,0.404,0.369,0.362,0.190,0.161,north,7.5,Yes
2016/08/27,16:40,0.391,0.234,0.402,0.370,0.358,0.190,0.161,north,7.1,Yes
2016/08/27,16:50,0.389,0.235,0.406,0.367,0.361,0.190,0.159,north,7.3,No
2016/08/27,17:00,0.389,0.233,0.404,0.371,0.360,0.188,0.161,north,5.9,No
2016/08/27,17:10,0.392,0.235,0.404,0.370,0.358,0.190,0.159,north,7.0,No
2016/08/27,17:20,0.388,0.234,0.405,0.367,0.362,0.189,0.159,north,6.2,Yes
2016/08/27,17:30,0.391,0.232,0.404,0.371,0.356,0.189,0.160,north,6.6,No
2016/08/27,17:40,0.392,0.234,0.406,0.367,0.361,0.190,0.159,north,6.7,No
2016/08/27,17:50,0.390,0.233,0.404,0.370,0.360,0.189,0.161,north,6.7,No
2016/08/27,18:00,0.392,0.234,0.403,0.371,0.358,0.189,0.160,north,6.7,No
2016/08/27,18:10,0.388,0.234,0.406,0.367,0.361,0.190,0.161,north,6.7,No
2016/08/27,18:20,0.392,0.233,0.403,0.372,0.357,0.189,0.161,north,6.4,No
2016/08/27,18:30,0.390,0.235,0.406,0.370,0.361,0.190,0.159,north,7.7,No
2016/08/27,18:40,0.388,0.234,0.405,0.370,0.360,0.189,0.160,north,7.7,No
2016/08/27,18:50,0.390,0.233,0.403,0.371,0.358,0.189,0.160,north,7.1,No
2016/08/27,19:00,0.389,0.235,0.407,0.371,0.362,0.190,0.160,north,7.2,No
2016/08/27,19:10,0.390,0.233,0.404,0.373,0.358,0.189,0.161,north,7.7,No
2016/08/27,19:20,0.392,0.234,0.406,0.370,0.361,0.191,0.159,north,7.6,No
2016/08/27,19:30,0.389,0.234,0.406,0.371,0.360,0.189,0.160,north,7.9,No
2016/08/27,19:40,0.393,0.234,0.405,0.371,0.360,0.190,0.161,north,9.1,No
2016/08/27,19:50,0.390,0.235,0.407,0.370,0.361,0.189,0.159,north,7.9,No
2016/08/27,20:00,0.391,0.233,0.404,0.372,0.359,0.189,0.161,north,7.8,No
2016/08/27,20:10,0.392,0.235,0.407,0.369,0.360,0.189,0.160,north,7.3,No
2016/08/27,20:20,0.390,0.233,0.404,0.372,0.359,0.190,0.160,north,7.6,No
2016/08/27,20:30,0.395,0.234,0.404,0.372,0.359,0.190,0.160,north,8.0,No
2016/08/27,20:40,0.391,0.234,0.406,0.369,0.361,0.190,0.160,north,8.4,No
2016/08/27,20:50,0.392,0.233,0.403,0.372,0.359,0.189,0.160,north,7.8,No
2016/08/27,21:00,0.392,0.234,0.406,0.369,0.361,0.190,0.159,north,7.5,No
2016/08/27,21:10,0.390,0.234,0.403,0.373,0.359,0.189,0.161,north,7.5,No
2016/08/27,21:20,0.395,0.234,0.406,0.370,0.361,0.191,0.160,north-northwest,9.2,No
2016/08/27,21:30,0.392,0.235,0.408,0.371,0.358,0.190,0.160,north,8.7,No
2016/08/27,21:40,0.390,0.235,0.405,0.372,0.360,0.191,0.161,north,8.1,No
2016/08/27,21:50,0.391,0.234,0.406,0.370,0.360,0.190,0.160,north,8.8,No
2016/08/27,22:00,0.392,0.234,0.404,0.373,0.358,0.188,0.161,north,8.6,No
2016/08/27,22:10,0.394,0.234,0.406,0.371,0.360,0.191,0.160,north,7.6,No
2016/08/27,22:20,0.391,0.235,0.407,0.371,0.358,0.190,0.161,north,7.2,No
2016/08/27,22:30,0.393,0.233,0.405,0.372,0.361,0.190,0.161,north-northwest,7.5,No
2016/08/27,22:40,0.392,0.235,0.408,0.370,0.359,0.191,0.160,north,7.5,No
2016/08/27,22:50,0.390,0.233,0.404,0.374,0.361,0.190,0.161,north,8.6,No
2016/08/27,23:00,0.394,0.234,0.408,0.370,0.360,0.191,0.159,north,7.4,No
2016/08/27,23:10,0.391,0.235,0.406,0.372,0.360,0.189,0.160,north,7.8,No
2016/08/27,23:20,0.394,0.234,0.405,0.373,0.362,0.191,0.161,north,7.1,No
2016/08/27,23:30,0.392,0.235,0.408,0.372,0.357,0.190,0.160,north,7.5,No
2016/08/27,23:40,0.390,0.233,0.405,0.373,0.361,0.190,0.161,north,7.8,No
2016/08/27,23:50,0.393,0.235,0.407,0.370,0.361,0.192,0.160,north,7.5,No
